Search flights

St Petersburg-Clearwater Intl Airport, St Petersburg-Clearwater (KPIE)

Airport Weather & NOTAM's

METAR for:KPIE (St Petersburg-Clearwater Intl, FL, US)
Text:KPIE 131153Z 21006KT 10SM FEW095 27/26 A2987 RMK AO2 SLP113 60008 70008 T02670261 10283 20261 51014
Conditions at:1153 UTC 13 Jun 2024
Temperature: 26.7°C ( 80°F)
Dewpoint: 26.1°C ( 79°F) [RH = 97%]
Pressure (altimeter):29.87 inches Hg (1011.6 mb) [Sea level pressure: 1011.3 mb]
Winds:from the SSW (210 degrees) at 7 MPH (6 knots; 3.1 m/s)
Visibility:10 or more sm (16+ km)
Ceiling:at least 12,000 feet AGL
Clouds:few clouds at 9500 feet AGL
TAF for:KPIE (St Petersburg-Clearwater Intl, FL, US) issued at 1141 UTC 13 Jun 2024
Text:KPIE 131141Z 1312/1412 VRB04KT P6SM VCSH SCT020 BKN050
Forecast period:1200 to 1400 UTC 13 June 2024
Forecast type:FROM: standard forecast or significant change
Winds:variable direction winds at 5 MPH (4 knots; 2.1 m/s)
Visibility:6 or more sm (10+ km)
Ceiling:5000 feet AGL
Clouds:scattered clouds at 2000 feet AGL, broken clouds at 5000 feet AGL
Weather:VCSH (showers in vicinity)
Text:FM131400 33008KT P6SM SCT025 SCT250
Forecast period:1400 to 2100 UTC 13 June 2024
Forecast type:FROM: standard forecast or significant change
Winds:from the NNW (330 degrees) at 9 MPH (8 knots; 4.1 m/s)
Visibility:6 or more sm (10+ km)
Ceiling:at least 12,000 feet AGL
Clouds:scattered clouds at 2500 feet AGL, scattered clouds at 25000 feet AGL
Text:FM132100 29010KT P6SM VCTS SCT040CB SCT100 SCT250
Forecast period:2100 UTC 13 June 2024 to 0200 UTC 14 June 2024
Forecast type:FROM: standard forecast or significant change
Winds:from the WNW (290 degrees) at 12 MPH (10 knots; 5.1 m/s)
Visibility:6 or more sm (10+ km)
Ceiling:at least 12,000 feet AGL
Clouds:scattered clouds at 4000 feet AGL, scattered clouds at 10000 feet AGL, scattered clouds at 25000 feet AGL
Weather:VCTS (thunderstorm in vicinity)
Text:FM140200 VRB04KT P6SM FEW010 SCT025
Forecast period:0200 to 1000 UTC 14 June 2024
Forecast type:FROM: standard forecast or significant change
Winds:variable direction winds at 5 MPH (4 knots; 2.1 m/s)
Visibility:6 or more sm (10+ km)
Ceiling:at least 12,000 feet AGL
Clouds:few clouds at 1000 feet AGL, scattered clouds at 2500 feet AGL
Text:FM141000 15005KT P6SM VCSH SCT010 BKN025
Forecast period:1000 to 1200 UTC 14 June 2024
Forecast type:FROM: standard forecast or significant change
Winds:from the SSE (150 degrees) at 6 MPH (5 knots; 2.6 m/s)
Visibility:6 or more sm (10+ km)
Ceiling:2500 feet AGL
Clouds:scattered clouds at 1000 feet AGL, broken clouds at 2500 feet AGL
Weather:VCSH (showers in vicinity)

Live Departures & Arrivals

There are currently no arrivals or departures for this airport.

Departures History (last 12 months)

Flight No. Dest. Aircraft Date
AAY238 KEYW PMDG 737-8... 2024-06-13 22:57:40
AAY988 KEYW Fenix A320... 2024-06-11 01:09:36
AAY256 KAVL Fenix A320... 2024-06-09 04:28:15
AAY986 KAVL Fenix A320... 2024-06-08 01:27:04
AAY238 KJAX PMDG 737-8... 2024-06-08 16:49:21
AAY1008 KRIC Fenix A320... 2024-06-07 11:38:05
AAY431 KDSM FlightFact... 2024-06-05 16:36:37
AAY2595 KRIC PMDG 737-8... 2024-06-05 16:55:29
AAY256 KAVL Fenix A320... 2024-06-05 05:44:02
1023 KBLV FWB Allegi... 2024-06-05 18:29:15
256 KAVL Fly The Ma... 2024-06-01 11:57:21
998 KRFD A320 2024-05-30 12:00:00
AAY2696 KGSP ToLissA319... 2024-05-29 03:36:09
AAY2601 KSYR Fenix A320... 2024-05-28 13:27:02
AAY2629 KMDT Fenix A320... 2024-05-27 01:33:38
AAY2595 KRIC Fenix A320... 2024-05-27 20:06:03
AAY341 KBNA FWB Allegi... 2024-05-25 14:16:53
AAY341 KBNA Fenix A320... 2024-05-24 18:44:04
AAY987 KAVL Fenix A320... 2024-05-21 02:23:27
AAY988 KEYW Fenix A320... 2024-05-20 21:12:52
AAY2653 KOMA Fenix A320... 2024-05-20 18:57:15
AAY256 KAVL Fly The Ma... 2024-05-20 10:38:38
AAY992 KGSO Fenix A320... 2024-05-18 03:42:50
AAY9300 KLAS A320 2024-05-20 06:25:00
AAY9201 KMSP Fenix A320... 2024-05-17 20:30:49
AAY2597 KJQF Fenix A320... 2024-05-16 10:41:32
AAY1028 KSGF Fenix A320... 2024-05-11 20:21:49
AAY1027 KMLI Fenix A320... 2024-05-11 00:52:29
AAY2715 KELM Fenix A320... 2024-05-10 00:11:38
AAY976 KBGR Fly The Ma... 2024-05-09 21:36:52
AAY1027 KMLI Fenix A320... 2024-05-09 11:17:46
AAY2612 KSDF Fenix A320... 2024-05-07 19:22:10
AAY1048 KSGF Fenix A320... 2024-05-07 02:26:37
KWA2189 KMLI Fenix A320... 2024-05-06 23:11:01
AAY2699 KRIC Fenix A320... 2024-05-06 23:08:07
AAY256 KAVL Airbus A31... 2024-05-06 02:21:53
AAY1028 KSGF Fenix A320... 2024-05-06 17:20:38
AAY992 KGSP Fenix A320... 2024-05-05 15:19:56
AAY979 KDAY PMDG 737-8... 2024-05-05 13:18:32
AAY9986 KMKE Fenix A320... 2024-05-04 18:29:51
AAY2667 KEYW B738 2024-05-04 19:41:00
AAY1082 KEYW FenixA320... 2024-05-04 06:46:47
AAY246 KAVL Fly The Ma... 2024-05-01 22:11:15
AAY246 KAVL MD80 2024-04-29 12:00:00
AAY972 KJQF Fenix A320... 2024-04-25 18:16:42
AAY167 KABE Fenix A320... 2024-04-23 00:25:15
AAY167 KABE Fenix A320... 2024-04-21 01:27:34
AAY1529 KFNT Fly The Ma... 2024-04-20 13:30:51
AAY9300 KLAS ToLiss A31... 2024-04-10 20:30:17
AAY167 KABE Fenix A320... 2024-04-10 16:46:04
AAY972 KJQF Fenix A320... 2024-04-07 12:42:48
AAY9298 KMYR Fenix A320... 2024-04-05 19:38:09
AAY366 KCVG Fenix A320... 2024-04-04 16:54:18
AAY991 KCHA Fenix A320... 2024-04-02 22:56:52
AAY167 KABE Fly The Ma... 2024-04-01 18:12:28
AAY9100 KLAS FenixA320... 2024-03-26 14:59:23
AAY1057 KGSP Fenix A320... 2024-03-26 00:25:18
AAY582 KGRR PMDG 737-8... 2024-03-24 18:45:28
AAY2595 KCID Fenix A320... 2024-03-24 18:58:30
AAY2638 KSYR ToLiss A31... 2024-03-23 23:33:59
AAY1212 KSAV PMDG 737-7... 2024-03-23 14:21:36
AAY1087 KTOL ToLiss A31... 2024-03-23 14:01:45
AAY996 KCAK 757-200 AL... 2024-03-21 20:47:47
AAY1143 KPIT Fenix A320... 2024-03-18 20:03:30
AAY1048 KEYW PMDG 737-8... 2024-03-10 22:50:37
AAY1951 KBNA Fenix A320... 2024-03-07 14:41:05
AAY2696 KROA ToLissA319... 2024-03-03 19:04:58
AAY1405 KTYS FenixA320_... 2024-02-27 11:30:11
AAY972 KOMA FenixA320_... 2024-02-26 22:28:24
AAY1048 KEYW FenixA320_... 2024-02-23 19:41:10
AAY2658 KSWF ToLiss A31... 2024-02-22 16:11:43
AAY980 KPIA Fly The Ma... 2024-02-20 17:05:30
AAY9901 KLAS FenixA320_... 2024-02-16 12:07:36
AAY998 KSBN ToLiss A31... 2024-02-15 23:32:52
AAY988 KEYW FenixA320_... 2024-02-15 17:42:57
AAY986 KFAR ToLiss A31... 2024-02-15 14:16:22
AAY604 KCHA FenixA320... 2024-02-13 03:59:31
AAY988 KEYW FenixA320_... 2024-02-11 21:45:16
AAY988 KEYW A320 2024-02-11 18:11:00
AAY988 KEYW FenixA320_... 2024-02-10 15:41:47
AAY1080 KLEX FenixA320_... 2024-02-06 20:36:00
AAY988 KEYW Airbus A31... 2024-02-05 01:35:22
AAY988 KEYW Airbus A31... 2024-02-04 22:36:15
AAY988 KEYW PMDG 737-8... 2024-02-04 10:22:45
AAY988 KEYW FWB Allegi... 2024-02-03 14:21:13
AAY988 KEYW FWB Allegi... 2024-02-02 21:01:04
AAY951 KMYR FenixA320_... 2024-01-21 15:33:56
AAY2722 KHTS FenixA320_... 2024-01-20 11:27:28
AAY9298 KMYR FenixA320_... 2024-01-17 18:03:46
AAY3165 KFNT Fly The Ma... 2024-01-07 12:11:09
AAY996 KSYR PMDG 737-8... 2023-12-25 18:34:24
AAY996 KCAK Airbus A32... 2023-12-18 21:34:34
AAY208 KABE Fly The Ma... 2023-12-16 20:01:45
AAY983 KFWA PMDG 737-8... 2023-12-15 22:18:23
AAY247 KAVL ToLissA319... 2023-12-06 15:48:53
AAY1022 KCAK Fly The Ma... 2023-12-05 07:32:48
AAY1064 KGSO B737-800X... 2023-12-04 03:23:00
AAY608 KIND FenixA320_... 2023-12-02 17:17:37
AAY1083 KBNA FenixA320_... 2023-11-28 11:52:16
AAY1064 KXNA ToLiss A31... 2023-11-25 19:58:57
AAY2653 KMDT FenixA320_... 2023-11-24 02:25:49
AAY1584 KPVU Airbus A32... 2023-11-24 20:08:03
AAY2678 KSDF ToLiss A31... 2023-11-17 15:03:03
AAY362 KCVG FenixA320_... 2023-11-13 03:24:07
AAY2716 KXNA ToLiss A31... 2023-11-12 13:48:03
AAY1094 KSDF FenixA320_... 2023-11-12 17:13:59
AAY2639 KJQF FenixA320_... 2023-11-02 10:43:55
AAY1003 KROA FenixA320_... 2023-11-01 19:46:04
AAY2647 KBNA Airbus A31... 2023-10-27 16:41:55
AAY1417 KTYS Fly The Ma... 2023-10-24 23:07:57
AAY2651 KJQF Airbus A31... 2023-10-22 20:05:17
AAY2629 KLEX ToLissA319... 2023-10-21 15:08:04
AAY1083 KBNA FenixA320_... 2023-10-07 16:26:02
AAY9298 KMYR FenixA320_... 2023-10-06 16:07:23
AAY2664 KGSO FenixA320_... 2023-09-22 11:38:44
AAY9298 KMYR ToLissA320... 2023-09-17 23:30:54
AAY1052 KFWA Aerosoft A... 2023-09-15 17:53:13
AAY993 KBLV FenixA320_... 2023-09-13 11:23:27
AAY987 KEYW ToLiss A31... 2023-09-03 14:28:05
AAY2699 KSDF FenixA320_... 2023-08-21 11:34:57
AAY231 KAVL FenixA320_... 2023-08-20 05:41:04
AAY268 KAVL FenixA320_... 2023-08-15 12:16:43
AAY2664 KGSO FenixA320_... 2023-08-11 19:05:30
AAY3173 KFNT FWB Allegi... 2023-08-07 23:09:24
AAY2702 KTOL FenixA320_... 2023-07-25 17:31:31
AAY1029 KBNA FenixA320_... 2023-07-25 12:20:55
AAY1852 KAVL FenixA320_... 2023-07-18 10:45:47
AAY9200 KPGD FWB Allegi... 2023-07-17 06:49:54
AAL987 KEYW ToLissA320... 2023-07-09 01:22:13
AAY982 KJQF FenixA320_... 2023-07-04 10:14:01
AAY1009 KOMA ToLiss A31... 2023-07-03 13:25:30
AAY2712 KJQF FenixA320_... 2023-06-24 11:40:56
AAY975 KHGR Airbus A32... 2023-06-22 15:59:46

Arrivals History (last 12 months)

Flight No. Origin Aircraft Date
AAY1052 KRIC Fenix A320... 2024-06-08 20:44:36
AAY234 KAVL Fenix A320... 2024-06-07 20:26:00
AAY9100 KLAS FWB Allegi... 2024-06-05 22:16:13
AAY417 KTYS FWB Allegi... 2024-06-05 04:17:01
AAY1067 KMLI PMDG 737-8... 2024-06-05 16:29:45
AAY979 KFAR ToLissA319... 2024-06-03 04:34:30
AAY1052 KRIC Fenix A320... 2024-06-03 17:46:41
1052 KRIC Fly The Ma... 2024-06-01 11:47:19
AAY2696 KSGF Fenix A320... 2024-05-26 03:33:02
AAY989 KEYW FWB Allegi... 2024-05-24 02:53:49
AAY9202 KSRQ PMDG 737-8... 2024-05-24 02:45:09
AAY2716 KMLI Fenix A320... 2024-05-23 20:33:37
AAY234 KAVL Fenix A320... 2024-05-22 03:14:56
AAY1018 KEYW Fenix A320... 2024-05-21 20:53:18
AAY972 KBGR Fly The Ma... 2024-05-19 14:17:11
AAY1025 KGSO Fenix A320... 2024-05-19 06:08:24
AAY1067 KMLI Fenix A320... 2024-05-18 01:35:58
AAY1065 KTOL Fenix A320... 2024-05-17 12:08:50
AAY1004 KSGF Fenix A320... 2024-05-17 05:34:09
AAY984 KJQF Fenix A320... 2024-05-16 04:47:37
AAY974 KSDF PMDG 737-8... 2024-05-11 03:41:36
AAY1796 KABE Fenix A320... 2024-05-11 00:31:38
AAY1004 KSGF Fenix A320... 2024-05-08 03:14:16
AAY9204 KPGD Fenix A320... 2024-05-07 02:00:15
AAY988 KFWA Fly The Ma... 2024-05-06 23:40:09
AAY368 KCVG Fenix A320... 2024-05-06 14:38:17
AAY214 KABE Fenix A320... 2024-05-05 22:51:47
AAY1052 KRIC Fenix A320... 2024-05-05 15:36:19
AAY1062 KEYW FenixA320... 2024-05-04 15:28:21
AAY994 KGSP Fenix A320... 2024-05-01 23:58:25
AAY611 KCHA Rotate-MD-... 2024-04-29 18:04:15
AAY308 KBNA Fenix A320... 2024-04-21 01:11:59
AAY308 KBNA Fenix A320... 2024-04-18 02:54:22
AAY366 KCVG Fly The Ma... 2024-04-15 11:56:09
AAY980 KEYW PMDG 737-8... 2024-04-13 16:01:48
AAY1018 KPIA ToLissA319... 2024-04-10 02:27:18
AAY308 KBNA Fenix A320... 2024-04-08 18:38:25
AAY978 KCAK 757-200 AL... 2024-04-05 03:55:44
AAY992 KTYS Fenix A320... 2024-04-03 21:34:42
AAY308 KBNA Fly The Ma... 2024-04-01 18:06:54
AAY1857 KAVL Fenix A320... 2024-04-01 02:07:12
AAY1036 KJQF PMDG 737-8... 2024-03-29 04:20:16
AAY9100 KPGD FenixA320... 2024-03-26 14:50:30
AAY988 KMDT Fenix A320... 2024-03-24 04:44:15
AAY992 KGSP Fenix A320... 2024-03-23 14:00:53
AAY2659 KTOL ToLiss A31... 2024-03-23 19:14:40
AAY1085 KSYR ToLiss A31... 2024-03-23 05:07:37
AAY1135 KPIT Fenix A320... 2024-03-20 20:49:14
AAY9100 KPGD Fly The Ma... 2024-03-17 16:09:42
AAY1565 KATW Airbus A31... 2024-03-11 16:45:25
AAY1051 KJQF Fenix A320... 2024-03-01 02:57:38
AAY3196 KATW ToLissA319... 2024-02-29 18:14:18
AAY877 KSFB FenixA320_... 2024-02-26 00:52:17
AAY406 KEYW Airbus A31... 2024-02-26 01:03:14
AAY2713 KEYW FenixA320_... 2024-02-26 01:22:48
AAYAAY KEYW A320 2024-02-26 13:10:00
AAY611 KCHA FenixA320... 2024-02-25 05:18:16
AAY318 KSFB B738 2024-02-26 01:05:00
AAY382 KCVG FenixA320_... 2024-02-23 18:40:11
AAY1039 KEYW FenixA320_... 2024-02-23 21:50:46
AAY2633 KSWF ToLiss A31... 2024-02-22 22:00:31
AAY1071 KSBN Fly The Ma... 2024-02-20 15:38:06
AAY382 KCVG FenixA320_... 2024-02-16 12:00:21
AAY2705 KSBN ToLiss A31... 2024-02-15 04:24:49
AAY1012 KFAR ToLiss A31... 2024-02-15 21:23:49
AAY382 KCVG FenixA320_... 2024-02-11 00:46:28
AAY382 KCVG FWB Allegi... 2024-02-08 01:50:46
AAY382 KCVG Airbus A31... 2024-02-06 23:50:46
AAY382 KCVG PMDG 737-8... 2024-02-05 17:55:59
AAY2603 KEYW Airbus A31... 2024-02-05 01:32:02
AAY981 KSBN FenixA320_... 2024-02-04 22:24:48
AAY2595 KSDF FenixA320_... 2024-02-04 21:12:07
AAY408 KCVG FenixA320_... 2024-02-03 05:39:52
AAY993 KGSP FenixA320_... 2024-01-15 13:29:14
AAY984 KDAY PMDG 737-8... 2024-01-14 01:52:42
AAY1066 KSGF Fly The Ma... 2023-12-28 17:40:04
AAY1122 KPIT Fly The Ma... 2023-12-25 16:41:07
AAY359 KBNA FenixA320_... 2023-12-24 18:18:47
AAY977 KCAK Airbus A32... 2023-12-18 09:06:59
AAY1565 KATW Fly The Ma... 2023-12-11 01:13:40
AAY1004 KSYR PMDG 737-8... 2023-12-11 19:51:41
AAY1399 KHTS ToLissA319... 2023-12-06 13:06:01
AAY1002 KXNA ToLiss A31... 2023-11-26 00:45:16
AAY394 KCVG FenixA320_... 2023-11-23 22:35:33
AAY2650 KCID FenixA320_... 2023-11-23 16:15:58
AAY2603 KEYW ToLissA319... 2023-11-21 05:10:04
AAY2638 KSDF ToLiss A31... 2023-11-17 19:08:16
AAY2595 KSYR FenixA320_... 2023-11-14 03:47:32
AAY1012 KXNA ToLiss A31... 2023-11-13 23:53:09
AAY1085 KTYS FenixA320_... 2023-11-10 05:00:02
AAY2775 KSDF Airbus A31... 2023-10-23 15:27:30
AAY1073 KLEX FenixA320_... 2023-10-22 21:05:36
AAY1085 KTYS Fly The Ma... 2023-10-19 03:15:11
AAY2634 KTOL FWB Allegi... 2023-10-05 16:05:11
AAY227 KAVL FenixA320_... 2023-09-20 21:35:44
AAY1098 KJQF FenixA320_... 2023-09-19 13:33:24
AAY1056 KHGR FenixA320_... 2023-09-04 22:57:27
994 KEYW ToLiss A31... 2023-09-03 21:57:37
AAY1054 KMEM FenixA320_... 2023-09-02 19:43:35
AAY1046 KMEM FenixA320_... 2023-08-19 22:20:48
AAY2599 KHTS FenixA320_... 2023-08-08 13:27:55
AAY988 KSBN FWB Allegi... 2023-08-03 03:05:22
AAY2708 KBLV FenixA320_... 2023-07-20 13:48:51
AAY981 KSGF FenixA320_... 2023-07-05 15:39:14
AAY1038 KJQF FenixA320_... 2023-07-04 14:37:14
AAY1082 KOMA ToLiss A31... 2023-07-03 19:01:04
AAY1038 KJQF FenixA320_... 2023-06-25 13:40:44
AAY977 KCHA Airbus A32... 2023-06-23 07:26:25
AAY2599 KHTS FenixA320_... 2023-06-20 13:53:12
AAY226 KAVL Airbus A31... 2023-06-20 04:45:57
AAY1085 KTYS FWB Allegi... 2023-06-15 01:38:53

Runway Information (Airport elevation: 8ft)

Runway 04 Length 5,891ft Width 153ft Elevation 8ft Surface Asphalt Heading 40
Runway 09 Length 4,686ft Width 140ft Elevation 8ft Surface Asphalt Heading 88
Runway 18 Length 9,708ft Width 144ft Elevation 8ft Surface Asphalt Heading 171
Runway 18R Length 4,417ft Width 77ft Elevation 8ft Surface Asphalt Heading 171
Runway 22 Length 5,891ft Width 153ft Elevation 8ft Surface Asphalt Heading 220
Runway 27 Length 4,686ft Width 140ft Elevation 8ft Surface Asphalt Heading 268
Runway 36 Length 9,708ft Width 144ft Elevation 8ft Surface Asphalt Heading 351
Runway 36L Length 4,417ft Width 77ft Elevation 8ft Surface Asphalt Heading 351

Airport Frequencies

Type APP/DEP Frequency 125.300 Mhz
Type ASOS Frequency 134.500 Mhz
Type ATIS Frequency 134.500 Mhz
Type Clearance Frequency 120.600 Mhz
Type D Frequency 125.300 Mhz
Type Ground Frequency 121.900 Mhz
Type Tower Frequency 118.300 Mhz
Type Tower Frequency 128.400 Mhz
Type UC Frequency 122.950 Mhz
Type APP/DEP Frequency 119.650 Mhz
Type APP/DEP Frequency 135.500 Mhz
Type Clearance Frequency 120.600 Mhz
Type FSS Frequency 122.200 Mhz
Type Ground Frequency 121.900 Mhz
Type Tower Frequency 118.300 Mhz
Type UC Frequency 122.950 Mhz

Airport Navaids

Type NDB Ident PI Frequency 360 Khz
Type VORTAC Ident PIE Frequency 116400 Khz